[[{"header":{"parameterUnit":"m.s-1","parameterCategory":1,"la1":30.2991,"la2":30.254,"lo1":-89.0895,"lo2":-89.0444,"dy":0.0017,"dx":0.0017,"nx":28,"ny":28,"refTime":"2025-02-13T03:00:00:Z","depth":0,"parameterNumber":2,"parameterNumberName":"U-component_of_WINDS"},"data":[0,0,0,0,0,0,0,0,0,0,0,0,0,0,0,0,0,0,0,0,0,0,0,0,0,0,0,0,0,0,0,0,0,0,0,0,0,0,0,0,0,0,0,0,0,0,0,0,0,0,0,0,0,0,0,0,0,0,-7.462,-7.4622,0,-7.4749,-7.4751,-7.4752,-7.4651,-7.4646,-7.4642,-7.4638,-7.4769,-7.4776,-7.4784,0,0,0,0,0,0,0,0,0,0,0,0,0,-7.4286,-7.4293,-7.462,-7.4622,-7.4623,-7.4749,-7.4751,-7.4753,-7.4652,-7.4646,-7.4641,-7.4636,-7.4766,-7.4775,-7.4784,0,0,0,0,0,0,0,0,0,0,0,0,0,-7.4425,-7.4295,-7.462,-7.4588,-7.4586,-7.4749,-7.4751,-7.4753,-7.4653,-7.4646,-7.464,-7.4634,-7.4764,-7.4775,-7.4786,-7.4986,0,0,-7.482,-7.4825,0,0,0,0,0,0,0,0,-7.4417,-7.4437,-7.4591,-7.459,-7.4589,-7.4677,-7.4681,-7.4831,-7.4654,-7.4628,-7.4638,-7.463,-7.4744,-7.4756,-7.4795,-7.4992,-7.4997,-7.4821,-7.4828,-7.4833,-7.4836,0,0,0,0,0,0,0,-7.4408,-7.4431,-7.4671,-7.4593,-7.4592,-7.4568,-7.458,-7.4709,-7.472,-7.4629,-7.4622,-7.4639,-7.4742,-7.4784,-7.4797,-7.4999,-7.4821,-7.4831,-7.4838,-7.4842,-7.5367,-7.5374,0,0,0,0,0,0,-7.4401,-7.4424,-7.4667,-7.4675,-7.4485,-7.4579,-7.4593,-7.4655,-7.4719,-7.4722,-7.4644,-7.4634,-7.4768,-7.4784,-7.4801,-7.5038,-7.4833,-7.4843,-7.485,-7.536,-7.5369,-7.5377,0,0,0,0,0,0,-7.4394,-7.4424,-7.4662,-7.4548,-7.4576,-7.4591,-7.4663,-7.4661,-7.4703,-7.473,-7.4732,-7.4685,-7.4763,-7.4785,-7.4941,-7.5041,-7.4848,-7.4859,-7.5352,-7.5363,-7.5373,-7.5514,0,0,0,0,0,0,-7.4385,-7.4422,-7.4498,-7.455,-7.4582,-7.4799,-7.4669,-7.4669,-7.4723,-7.4711,-7.4769,-7.4772,-7.476,-7.4924,-7.4952,-7.5053,-7.4868,-7.5343,-7.5357,-7.5369,-7.55,-7.5528,-7.5552,0,0,0,0,0,-7.4374,-7.4532,-7.4502,-7.4532,-7.4677,-7.4805,-7.4823,-7.4806,-7.4732,-7.4808,-7.4826,-7.477,-7.5027,-7.4941,-7.4971,-7.5077,-7.5336,-7.5353,-7.5368,-7.5489,-7.5523,-7.5552,0,0,0,0,0,0,-7.4489,-7.4538,-7.4505,-7.4685,-7.4742,-7.4788,-7.4882,-7.4843,-7.4921,-7.4906,-7.4882,-7.4896,-7.5059,-7.5084,-7.4988,-7.5275,-7.517,-7.5193,-7.5251,-7.5284,-7.5309,-7.5297,-7.4877,0,0,0,0,0,-7.4536,-7.4636,-7.4673,-7.4828,-7.4859,-7.4867,-7.4922,-7.4904,-7.4961,-7.4984,-7.5013,-7.5071,-7.5164,-7.5226,-7.5314,-7.5506,-7.5516,-7.5594,-7.562,-7.5641,-7.566,-7.5763,-7.5797,-7.543,-7.5429,-7.5429,0,0,-7.4633,-7.4672,-7.4736,-7.4853,-7.4894,-7.4998,-7.4887,-7.5001,-7.5077,-7.5002,-7.5149,-7.5174,-7.5236,-7.5411,-7.5489,-7.5437,-7.5765,-7.5662,-7.5679,-7.5685,-7.5783,-7.5817,-7.5848,-7.5441,-7.5439,-7.5437,0,0,-7.4861,-7.4902,-7.5035,-7.508,-7.5145,-7.515,-7.5183,-7.5236,-7.5249,-7.5398,-7.5343,-7.5435,-7.5596,-7.5643,-7.5688,-7.594,-7.5891,-7.597,-7.6103,-7.6203,-7.6232,-7.6257,-7.6345,-7.6377,-7.5989,-7.5989,-7.599,0,-7.4972,-7.5126,-7.5108,-7.5227,-7.528,-7.5219,-7.5353,-7.5398,-7.5489,-7.5526,-7.5468,-7.5671,-7.5709,-7.5893,-7.5955,-7.5994,-7.603,-7.596,-7.623,-7.6255,-7.6278,-7.6361,-7.6394,-7.5998,-7.5997,-7.5996,-7.5995,0,-7.5259,-7.5367,-7.5467,-7.5556,-7.5621,-7.5748,-7.5749,-7.5818,-7.5797,-7.5808,-7.596,-7.6005,-7.61,-7.6144,-7.6124,-7.6327,-7.6292,-7.6233,-7.6125,-7.6322,-7.64,-7.6431,-7.6011,-7.6008,-7.6005,-7.6003,0,0,-7.5557,-7.5639,-7.5675,-7.5716,-7.5786,-7.5869,-7.5994,-7.6088,-7.6146,-7.6213,-7.6315,-7.6456,-7.6402,-7.6454,-7.6439,-7.6528,-7.6722,-7.6458,-7.6459,-7.6502,-7.6946,-7.6987,-7.7024,-7.6693,-7.6699,-7.6704,-7.6939,0,-7.5786,-7.6001,-7.5991,-7.6193,-7.6292,-7.6239,-7.6347,-7.6402,-7.6418,-7.6505,-7.6522,-7.6621,-7.6543,-7.6574,-7.666,-7.668,-7.681,-7.6664,-7.6786,-7.6791,-7.6767,-7.7065,-7.7108,-7.7327,-7.697,-7.6975,-7.6979,0,-7.6079,-7.6157,-7.6369,-7.6425,-7.6467,-7.6564,-7.6651,-7.6735,-7.6797,-7.6802,-7.6863,-7.6834,-7.6961,-7.6855,-7.7029,-7.6929,-7.698,-7.6998,-7.7006,-7.7013,-7.6893,-7.7075,-7.7397,-7.7429,-7.7027,-7.7023,-7.702,0,-7.6271,-7.643,-7.6577,-7.6614,-7.6684,-7.6754,-7.6787,-7.6843,-7.6901,-7.6977,-7.7015,-7.7106,-7.7154,-7.7225,-7.7222,-7.7146,-7.7398,-7.7292,-7.7404,-7.7404,-7.7454,-7.745,-7.7785,-7.7495,-7.7495,-7.7494,-7.7494,0,-7.6525,-7.6656,-7.6664,-7.6754,-7.69,-7.6889,-7.7034,-7.7059,-7.7111,-7.7204,-7.7166,-7.7255,-7.7248,-7.7339,-7.7339,-7.7481,-7.7504,-7.7511,-7.7508,-7.7512,-7.751,-7.754,-7.7523,-7.7503,-7.7501,-7.7499,-7.7498,0,-7.6761,-7.6772,-7.6928,-7.6984,-7.7002,-7.7106,-7.7154,-7.7239,-7.7254,-7.7374,-7.7401,-7.7423,-7.7528,-7.7535,-7.7656,-7.7655,-7.7828,-7.7811,-7.7806,-7.7801,-7.7911,-7.7899,-7.8273,-7.832,-7.8004,-7.8007,-7.801,0,-7.6919,-7.7019,-7.7086,-7.7147,-7.7184,-7.7283,-7.7342,-7.7337,-7.7401,-7.7482,-7.7558,-7.766,-7.7739,-7.791,-7.7936,-7.8029,-7.8011,-7.8137,-7.8025,-7.8025,-7.8009,-7.8001,-7.801,-7.8156,-7.8159,-7.8162,-7.8165,0,-7.7198,-7.7199,-7.7287,-7.7378,-7.7451,-7.7522,-7.7588,-7.764,-7.7643,-7.7717,-7.7825,-7.7888,-7.8013,-7.8113,-7.8205,-7.8238,-7.8202,-7.8201,-7.8231,-7.8232,-7.8224,-7.8227,-7.786,-7.8191,-7.8188,-7.8186,-7.8185,-7.8184,-7.7397,-7.7483,-7.7544,-7.7644,-7.7694,-7.7758,-7.7841,-7.7867,-7.7957,-7.8058,-7.8051,-7.8169,-7.8231,-7.8351,-7.8392,-7.8485,-7.8442,-7.8487,-7.8497,-7.8507,-7.8516,-7.8215,-7.8502,-7.8502,-7.8501,-7.85,-7.85,0,-7.767,-7.7708,-7.78,-7.7895,-7.7974,-7.7937,-7.8009,-7.8077,-7.8182,-7.8243,-7.8324,-7.8448,-7.8547,-7.8584,-7.868,-7.8748,-7.8733,-7.8773,-7.8765,-7.8773,-7.8551,-7.8513,-7.8782,-7.8782,-7.8782,-7.8782,-7.8782,-7.8782,-7.782,-7.7964,-7.7974,-7.8142,-7.8179,-7.8296,-7.834,-7.8399,-7.8448,-7.8588,-7.8671,-7.8695,-7.8747,-7.8847,-7.8937,-7.8945,-7.898,-7.9026,-7.9027,-7.8817,-7.8789,-7.8761,-7.8726,-7.9035,-7.9035,-7.9241,-7.9243,-7.9244]},{"header":{"parameterUnit":"m.s-1","parameterCategory":1,"la1":30.2991,"la2":30.254,"lo1":-89.0895,"lo2":-89.0444,"dy":0.0017,"dx":0.0017,"nx":28,"ny":28,"refTime":"2025-02-13T03:00:00:Z","depth":0,"parameterNumber":3,"parameterNumberName":"V-component_of_WINDS"},"data":[0,0,0,0,0,0,0,0,0,0,0,0,0,0,0,0,0,0,0,0,0,0,0,0,0,0,0,0,0,0,0,0,0,0,0,0,0,0,0,0,0,0,0,0,0,0,0,0,0,0,0,0,0,0,0,0,0,0,2.0234,2.0234,0,2.0305,2.0306,2.0307,2.0298,2.0296,2.0295,2.0294,2.0366,2.0368,2.0371,0,0,0,0,0,0,0,0,0,0,0,0,0,2.009,2.0092,2.0234,2.0234,2.0235,2.0305,2.0306,2.0307,2.0298,2.0296,2.0295,2.0294,2.0365,2.0368,2.0372,0,0,0,0,0,0,0,0,0,0,0,0,0,2.0156,2.0093,2.0233,2.0239,2.024,2.0305,2.0306,2.0307,2.0298,2.0296,2.0295,2.0293,2.0363,2.0368,2.0372,2.0435,0,0,2.0386,2.0388,0,0,0,0,0,0,0,0,2.0152,2.0161,2.0237,2.0239,2.024,2.0291,2.0282,2.035,2.0298,2.0276,2.0294,2.0292,2.0342,2.0348,2.0365,2.0438,2.0441,2.0386,2.0389,2.0391,2.0392,0,0,0,0,0,0,0,2.0147,2.0158,2.0262,2.0239,2.024,2.0238,2.0246,2.0294,2.0318,2.0278,2.0277,2.0286,2.0342,2.0361,2.0367,2.0442,2.0386,2.039,2.0393,2.0395,2.0574,2.0576,0,0,0,0,0,0,2.0141,2.0154,2.026,2.0264,2.0191,2.0243,2.0251,2.0276,2.0317,2.0322,2.0288,2.0285,2.0354,2.0362,2.0369,2.0448,2.0391,2.0395,2.0398,2.0572,2.0574,2.0577,0,0,0,0,0,0,2.0138,2.0151,2.0257,2.0209,2.0222,2.0247,2.0276,2.0279,2.0297,2.0325,2.0329,2.0302,2.0353,2.0363,2.042,2.045,2.0397,2.0401,2.0569,2.0573,2.0575,2.0603,0,0,0,0,0,0,2.0134,2.015,2.0173,2.021,2.0225,2.0306,2.0277,2.0281,2.0305,2.0303,2.034,2.0344,2.0352,2.0413,2.0424,2.0455,2.0405,2.0567,2.0571,2.0575,2.0599,2.0607,2.0613,0,0,0,0,0,2.0129,2.0177,2.0175,2.0187,2.0255,2.0307,2.0316,2.0325,2.0308,2.0332,2.035,2.0343,2.0445,2.0419,2.0431,2.0464,2.0565,2.057,2.0574,2.0596,2.0605,2.0613,0,0,0,0,0,0,2.0142,2.0182,2.0179,2.0241,2.0271,2.0306,2.0336,2.0334,2.0369,2.0366,2.0376,2.0384,2.0442,2.0458,2.0429,2.0529,2.0502,2.051,2.0515,2.0524,2.053,2.0525,2.0408,0,0,0,0,0,2.0153,2.0192,2.0224,2.0275,2.0291,2.0311,2.0334,2.0339,2.0371,2.0383,2.0405,2.0436,2.0475,2.05,2.0538,2.0602,2.0611,2.0631,2.0638,2.0643,2.0649,2.0687,2.0697,2.0592,2.0592,2.0592,0,0,2.0173,2.02,2.0224,2.0279,2.0303,2.0344,2.0322,2.0365,2.0396,2.0389,2.0445,2.0463,2.0497,2.0559,2.0587,2.0575,2.0681,2.0649,2.0653,2.0656,2.0693,2.0703,2.0712,2.0595,2.0594,2.0594,0,0,2.0233,2.0257,2.0303,2.0328,2.0366,2.038,2.0391,2.0427,2.0439,2.0495,2.0492,2.0529,2.0595,2.0621,2.0643,2.0717,2.0712,2.0729,2.0763,2.08,2.0808,2.0816,2.0843,2.0853,2.0735,2.0735,2.0735,0,2.0254,2.0316,2.0327,2.0372,2.0397,2.0395,2.0443,2.0467,2.0514,2.0531,2.0517,2.0604,2.0626,2.0695,2.0714,2.0731,2.0745,2.0724,2.0806,2.0814,2.0821,2.0847,2.0858,2.0737,2.0737,2.0736,2.0736,0,2.0341,2.0384,2.0417,2.0465,2.0494,2.054,2.0559,2.0587,2.059,2.0606,2.0665,2.0693,2.0737,2.0754,2.0757,2.0824,2.0816,2.0804,2.0778,2.0833,2.0858,2.0868,2.074,2.0739,2.0738,2.0738,0,0,2.0408,2.0464,2.0476,2.0499,2.0542,2.0576,2.0623,2.0668,2.0692,2.0726,2.0766,2.0825,2.0815,2.084,2.0846,2.0879,2.0938,2.0863,2.0864,2.0877,2.1016,2.1024,2.1036,2.0935,2.0937,2.0939,2.1013,0,2.0472,2.0556,2.0569,2.0643,2.0684,2.0685,2.0726,2.0757,2.0774,2.0812,2.083,2.0872,2.0856,2.0871,2.0903,2.0924,2.0966,2.0918,2.0973,2.0975,2.0964,2.1049,2.1057,2.1126,2.1023,2.1024,2.1025,0,2.0558,2.0596,2.0675,2.0715,2.0733,2.0769,2.0813,2.0849,2.0885,2.0896,2.0926,2.0929,2.0979,2.0952,2.1021,2.0989,2.1013,2.1026,2.1029,2.1034,2.1003,2.1057,2.1148,2.1158,2.1041,2.104,2.1038,0,2.0601,2.0672,2.0728,2.0748,2.0796,2.0822,2.0843,2.0878,2.0905,2.0944,2.0962,2.1005,2.1029,2.1063,2.1078,2.1057,2.1147,2.1121,2.1158,2.1157,2.1176,2.1175,2.1273,2.1191,2.1191,2.1191,2.119,0,2.0671,2.0719,2.0749,2.0783,2.0838,2.0854,2.0908,2.0928,2.096,2.0999,2.1002,2.1039,2.1057,2.1098,2.111,2.1167,2.1177,2.1187,2.119,2.1187,2.1186,2.1202,2.1198,2.1193,2.1193,2.1192,2.1192,0,2.0727,2.0749,2.0811,2.0853,2.0865,2.0903,2.0939,2.0974,2.0992,2.1042,2.1054,2.1082,2.113,2.1149,2.1207,2.1216,2.1281,2.128,2.1269,2.127,2.1307,2.1303,2.1418,2.1435,2.1342,2.1343,2.1344,0,2.0771,2.0808,2.0855,2.0882,2.0905,2.0949,2.0977,2.0995,2.1024,2.1071,2.11,2.1148,2.1188,2.1264,2.1289,2.1334,2.1335,2.1372,2.1341,2.1338,2.1336,2.1334,2.1338,2.1377,2.1378,2.1379,2.138,0,2.0846,2.0856,2.0897,2.0944,2.0978,2.1015,2.1051,2.1073,2.1097,2.113,2.118,2.1211,2.1272,2.132,2.1367,2.1389,2.1389,2.139,2.1401,2.1398,2.1391,2.1396,2.1285,2.1387,2.1386,2.1385,2.1385,2.1385,2.0898,2.0932,2.0972,2.1018,2.1048,2.1083,2.1118,2.1142,2.1184,2.1235,2.1243,2.1297,2.1335,2.1399,2.1423,2.1466,2.1456,2.1471,2.1475,2.1479,2.1482,2.1384,2.1474,2.1474,2.1474,2.1474,2.1473,0,2.0974,2.1,2.1044,2.1095,2.1133,2.1131,2.1172,2.1203,2.1251,2.1287,2.1327,2.1385,2.1433,2.1463,2.1512,2.154,2.1541,2.1552,2.155,2.1556,2.1487,2.1474,2.155,2.155,2.155,2.155,2.155,2.155,2.1018,2.1077,2.1092,2.1167,2.1193,2.1246,2.127,2.1302,2.1332,2.1397,2.1438,2.1458,2.1492,2.1544,2.1588,2.1596,2.1613,2.1625,2.1632,2.1568,2.156,2.1552,2.1539,2.1629,2.1629,2.1697,2.1697,2.1698]}]]